Volver al catálogo

ARIANE 5 R/B

ActivoHEO
NORAD 38553·ROCKET BODY·🇫🇷 France

Lanzado Jul 5, 2012 desde Guiana Space Centre

Loading…

Próximos Pases (próximas 24 horas)

TLE

ActualizadoSource: Space-Track

Época: Sep 14, 2026, 12:32 UTC

1 38553U 12035C   26257.52283842  .00002619  00000-0  69938-3 0  9997
2 38553   6.4129 309.9356 7074240   8.3080 359.1298  2.54386060124442

Sigue ARIANE 5 R/B en tiempo real con AllMySat

Download on the App Store